Climatologie pour Saint-Brevin les Pins
Jour • Résumé pour mai 26, 2017 Système :  Métrique    Anglais   Mixte
« - 1 jour
+ 1 jour »
Jour Semaine Mois Année Personnalisé
  Maximum : Minimum : Moyenne :
Température sous abri : -17.8 °C -9.1 °C -5.6 °C
Point de rosée : -17.8 °C -10.7 °C -8.9 °C
Humidité : Humidity % 47 % 70 %
Vitesse du vent : 0 km/h 0 km/h 9.3 km/h
Rafale : 0 km/h - -
Direction :- - SE
Pression : 0 hPa 34188.4 hPa -
Précipitations : 0 mm    
Historical Graphs
 
 
Tableau de données pour mai 26, 2017
Heure Tempé Pt rosée Pression Vent Vitesse Rafale Humidité Taux pluie (/hr) Soleil
-17.8 °C -17.8 °C 0 hPa Calm     Humidity % 0 mm SolarRadiationWatts/m^2 W/m2 Conditions
00:00 -6.4 °C -8.9 °C 34347.6 hPa East 12.9 km/h 18.2 km/h 75 % 0 mm 0 W/m2
00:10 -6.4 °C -9 °C 34347.6 hPa East 7.7 km/h 18.2 km/h 75 % 0 mm 0 W/m2
00:15 -6.5 °C -9 °C 34337.4 hPa ENE 5.1 km/h 18.2 km/h 75 % 0 mm 0 W/m2
00:20 -6.6 °C -9.1 °C 34337.4 hPa East 23.3 km/h 23.3 km/h 75 % 0 mm 0 W/m2
00:25 -6.6 °C -9.1 °C 34337.4 hPa East 15.6 km/h 23.3 km/h 75 % 0 mm 0 W/m2
00:30 -6.6 °C -9.1 °C 34337.4 hPa East 7.7 km/h 23.3 km/h 75 % 0 mm 0 W/m2
00:35 -6.6 °C -9.1 °C 34337.4 hPa East 23.3 km/h 23.3 km/h 75 % 0 mm 0 W/m2
00:40 -6.6 °C -9.1 °C 34337.4 hPa ENE 7.7 km/h 23.3 km/h 75 % 0 mm 0 W/m2
00:45 -6.6 °C -9.2 °C 34337.4 hPa East 7.7 km/h 23.3 km/h 75 % 0 mm 0 W/m2
00:50 -6.6 °C -9.2 °C 34337.4 hPa ENE 10.3 km/h 20.8 km/h 75 % 0 mm 0 W/m2
00:55 -6.8 °C -9.3 °C 34337.4 hPa ENE 5.1 km/h 18.2 km/h 75 % 0 mm 0 W/m2
01:05 -7.1 °C -9.2 °C 34337.4 hPa ENE 5.1 km/h 15.6 km/h 78 % 0 mm 0 W/m2
01:10 -7.2 °C -9.4 °C 34337.4 hPa East 7.7 km/h 12.9 km/h 78 % 0 mm 0 W/m2
01:15 -7.2 °C -9.3 °C 34337.4 hPa ENE 7.7 km/h 15.6 km/h 79 % 0 mm 0 W/m2
01:20 -7.3 °C -9.3 °C 34337.4 hPa ENE 5.1 km/h 15.6 km/h 79 % 0 mm 0 W/m2
01:25 -7.4 °C -9.4 °C 34337.4 hPa ENE 10.3 km/h 10.3 km/h 79 % 0 mm 0 W/m2
01:30 -7.3 °C -9.4 °C 34337.4 hPa ENE 7.7 km/h 12.9 km/h 79 % 0 mm 0 W/m2
01:35 -7.4 °C -9.4 °C 34337.4 hPa East 5.1 km/h 15.6 km/h 80 % 0 mm 0 W/m2
01:40 -7.4 °C -9.4 °C 34337.4 hPa East 15.6 km/h 18.2 km/h 80 % 0 mm 0 W/m2
01:45 -7.6 °C -9.5 °C 34337.4 hPa East 7.7 km/h 20.8 km/h 80 % 0 mm 0 W/m2
01:50 -7.4 °C -9.4 °C 34327.3 hPa ENE 10.3 km/h 20.8 km/h 80 % 0 mm 0 W/m2
01:55 -7.4 °C -9.4 °C 34327.3 hPa East 7.7 km/h 18.2 km/h 80 % 0 mm 0 W/m2
02:00 -7.4 °C -9.4 °C 34327.3 hPa ENE 12.9 km/h 20.8 km/h 80 % 0 mm 0 W/m2
02:05 -7.4 °C -9.5 °C 34327.3 hPa ENE 7.7 km/h 20.8 km/h 79 % 0 mm 0 W/m2
02:10 -7.4 °C -9.5 °C 34327.3 hPa East 7.7 km/h 20.8 km/h 79 % 0 mm 0 W/m2
02:15 -7.4 °C -9.6 °C 34327.3 hPa East 15.6 km/h 20.8 km/h 78 % 0 mm 0 W/m2
02:20 -7.4 °C -9.7 °C 34327.3 hPa ENE 12.9 km/h 20.8 km/h 78 % 0 mm 0 W/m2
02:25 -7.5 °C -9.7 °C 34313.7 hPa ESE 5.1 km/h 23.3 km/h 78 % 0 mm 0 W/m2
02:30 -7.6 °C -9.7 °C 34327.3 hPa East 5.1 km/h 23.3 km/h 78 % 0 mm 0 W/m2
02:35 -7.6 °C -9.7 °C 34313.7 hPa ENE 5.1 km/h 20.8 km/h 79 % 0 mm 0 W/m2
02:40 -7.6 °C -9.8 °C 34313.7 hPa East 7.7 km/h 18.2 km/h 78 % 0 mm 0 W/m2
02:45 -7.6 °C -9.8 °C 34313.7 hPa ENE 5.1 km/h 18.2 km/h 78 % 0 mm 0 W/m2
02:50 -7.7 °C -9.8 °C 34313.7 hPa East 15.6 km/h 18.2 km/h 78 % 0 mm 0 W/m2
02:55 -7.7 °C -9.8 °C 34313.7 hPa East 7.7 km/h 15.6 km/h 78 % 0 mm 0 W/m2
03:00 -7.7 °C -9.9 °C 34313.7 hPa East 7.7 km/h 18.2 km/h 78 % 0 mm 0 W/m2
03:05 -7.8 °C -9.8 °C 34313.7 hPa East 2.6 km/h 18.2 km/h 79 % 0 mm 0 W/m2
03:10 -7.8 °C -9.9 °C 34303.6 hPa East 7.7 km/h 18.2 km/h 79 % 0 mm 0 W/m2
03:15 -7.8 °C -9.9 °C 34303.6 hPa East 7.7 km/h 20.8 km/h 79 % 0 mm 0 W/m2
03:20 -7.9 °C -9.9 °C 34303.6 hPa East 5.1 km/h 20.8 km/h 79 % 0 mm 0 W/m2
03:25 -7.9 °C -10 °C 34303.6 hPa East 2.6 km/h 15.6 km/h 79 % 0 mm 0 W/m2
03:30 -8 °C -9.9 °C 34303.6 hPa East 5.1 km/h 15.6 km/h 80 % 0 mm 0 W/m2
03:35 -8 °C -9.9 °C 34303.6 hPa ENE 10.3 km/h 15.6 km/h 80 % 0 mm 0 W/m2
03:40 -8.1 °C -10 °C 34303.6 hPa East 12.9 km/h 15.6 km/h 80 % 0 mm 0 W/m2
03:45 -8.1 °C -10 °C 34313.7 hPa ENE 7.7 km/h 15.6 km/h 80 % 0 mm 0 W/m2
03:50 -8.2 °C -10.1 °C 34313.7 hPa East 2.6 km/h 15.6 km/h 80 % 0 mm 0 W/m2
03:55 -8.2 °C -10.1 °C 34303.6 hPa East 7.7 km/h 15.6 km/h 81 % 0 mm 0 W/m2
04:00 -8.2 °C -10.1 °C 34303.6 hPa ESE 2.6 km/h 15.6 km/h 81 % 0 mm 0 W/m2
04:05 -8.3 °C -10.1 °C 34303.6 hPa East 7.7 km/h 15.6 km/h 81 % 0 mm 0 W/m2
04:10 -8.4 °C -10.1 °C 34303.6 hPa East 10.3 km/h 18.2 km/h 82 % 0 mm 0 W/m2
04:15 -8.3 °C -10.1 °C 34303.6 hPa East 18.2 km/h 20.8 km/h 82 % 0 mm 0 W/m2
04:20 -8.3 °C -10.1 °C 34303.6 hPa East 2.6 km/h 20.8 km/h 82 % 0 mm 0 W/m2
04:25 -8.4 °C -10.1 °C 34293.4 hPa ESE 12.9 km/h 20.8 km/h 82 % 0 mm 0 W/m2
04:30 -8.4 °C -10.1 °C 34293.4 hPa East 12.9 km/h 20.8 km/h 82 % 0 mm 0 W/m2
04:35 -8.4 °C -10.2 °C 34293.4 hPa ENE 12.9 km/h 23.3 km/h 82 % 0 mm 0 W/m2
04:40 -8.4 °C -10.1 °C 34293.4 hPa Calm   23.3 km/h 82 % 0 mm 0 W/m2
04:45 -8.4 °C -10.2 °C 34293.4 hPa East 7.7 km/h 20.8 km/h 81 % 0 mm 0 W/m2
04:50 -8.5 °C -10.2 °C 34293.4 hPa East 5.1 km/h 18.2 km/h 82 % 0 mm 0 W/m2
04:55 -8.5 °C -10.2 °C 34293.4 hPa ENE 2.6 km/h 18.2 km/h 82 % 0 mm 0 W/m2
05:00 -8.6 °C -10.3 °C 34293.4 hPa East 15.6 km/h 23.3 km/h 82 % 0 mm 0 W/m2
05:05 -8.5 °C -10.2 °C 34293.4 hPa East 7.7 km/h 23.3 km/h 82 % 0 mm 0 W/m2
05:10 -8.6 °C -10.4 °C 34293.4 hPa East 5.1 km/h 18.2 km/h 81 % 0 mm 0 W/m2
05:15 -8.6 °C -10.3 °C 34293.4 hPa East 7.7 km/h 18.2 km/h 82 % 0 mm 0 W/m2
05:20 -8.6 °C -10.3 °C 34279.9 hPa East 7.7 km/h 20.8 km/h 82 % 0 mm 0 W/m2
05:25 -8.6 °C -10.3 °C 34279.9 hPa East 10.3 km/h 23.3 km/h 82 % 0 mm 0 W/m2
05:30 -8.6 °C -10.4 °C 34279.9 hPa East 5.1 km/h 23.3 km/h 81 % 0 mm 0 W/m2
05:35 -8.6 °C -10.4 °C 34279.9 hPa East 10.3 km/h 20.8 km/h 81 % 0 mm 0 W/m2
05:40 -8.6 °C -10.4 °C 34279.9 hPa East 5.1 km/h 23.3 km/h 81 % 0 mm 0 W/m2
05:45 -8.6 °C -10.4 °C 34279.9 hPa ENE 5.1 km/h 23.3 km/h 81 % 0 mm 0 W/m2
05:50 -8.6 °C -10.5 °C 34279.9 hPa ENE 5.1 km/h 23.3 km/h 80 % 0 mm 0 W/m2
05:55 -8.7 °C -10.4 °C 34279.9 hPa ENE 10.3 km/h 23.3 km/h 81 % 0 mm 0 W/m2
06:00 -8.7 °C -10.5 °C 34279.9 hPa ESE 7.7 km/h 20.8 km/h 81 % 0 mm 0 W/m2
06:05 -8.7 °C -10.5 °C 34269.7 hPa East 12.9 km/h 20.8 km/h 81 % 0 mm 0 W/m2
06:10 -8.7 °C -10.6 °C 34269.7 hPa East 7.7 km/h 20.8 km/h 81 % 0 mm 0 W/m2
06:15 -8.8 °C -10.6 °C 34269.7 hPa East 12.9 km/h 20.8 km/h 81 % 0 mm 0 W/m2
06:20 -8.8 °C -10.6 °C 34269.7 hPa Calm   20.8 km/h 82 % 0 mm 0 W/m2
06:25 -8.8 °C -10.6 °C 34269.7 hPa East 7.7 km/h 18.2 km/h 82 % 0 mm 5 W/m2
06:30 -8.9 °C -10.6 °C 34269.7 hPa Calm   18.2 km/h 82 % 0 mm 7 W/m2
06:35 -9 °C -10.7 °C 34269.7 hPa ESE 5.1 km/h 18.2 km/h 82 % 0 mm 9 W/m2
06:40 -9 °C -10.6 °C 34269.7 hPa East 2.6 km/h 18.2 km/h 83 % 0 mm 11 W/m2
06:45 -9.1 °C -10.7 °C 34269.7 hPa East 5.1 km/h 18.2 km/h 83 % 0 mm 12 W/m2
06:50 -8.9 °C -10.6 °C 34256.2 hPa ESE 2.6 km/h 15.6 km/h 82 % 0 mm 14 W/m2
06:55 -8.8 °C -10.6 °C 34256.2 hPa ESE 2.6 km/h 20.8 km/h 82 % 0 mm 16 W/m2
07:00 -8.8 °C -10.6 °C 34256.2 hPa ESE 10.3 km/h 20.8 km/h 81 % 0 mm 18 W/m2
07:05 -8.7 °C -10.6 °C 34256.2 hPa ESE 10.3 km/h 18.2 km/h 81 % 0 mm 19 W/m2
07:10 -8.7 °C -10.5 °C 34269.7 hPa ESE 5.1 km/h 18.2 km/h 81 % 0 mm 21 W/m2
07:15 -8.7 °C -10.6 °C 34269.7 hPa ESE 7.7 km/h 18.2 km/h 80 % 0 mm 23 W/m2
07:20 -8.6 °C -10.5 °C 34256.2 hPa ESE 10.3 km/h 20.8 km/h 80 % 0 mm 25 W/m2
07:25 -8.5 °C -10.4 °C 34256.2 hPa East 7.7 km/h 20.8 km/h 80 % 0 mm 26 W/m2
07:30 -8.4 °C -10.4 °C 34269.7 hPa East 5.1 km/h 20.8 km/h 79 % 0 mm 26 W/m2
07:35 -8.3 °C -10.4 °C 34269.7 hPa East 5.1 km/h 20.8 km/h 79 % 0 mm 28 W/m2
07:40 -8.3 °C -10.4 °C 34269.7 hPa East 7.7 km/h 23.3 km/h 78 % 0 mm 30 W/m2
07:45 -8.2 °C -10.3 °C 34269.7 hPa East 12.9 km/h 23.3 km/h 78 % 0 mm 32 W/m2
07:50 -8.1 °C -10.3 °C 34256.2 hPa East 5.1 km/h 20.8 km/h 78 % 0 mm 32 W/m2
07:55 -8 °C -10.3 °C 34269.7 hPa ESE 10.3 km/h 20.8 km/h 77 % 0 mm 33 W/m2
08:00 -7.9 °C -10.2 °C 34269.7 hPa East 15.6 km/h 23.3 km/h 77 % 0 mm 202 W/m2
08:05 -7.9 °C -10.2 °C 34269.7 hPa ESE 12.9 km/h 23.3 km/h 77 % 0 mm 221 W/m2
08:10 -7.8 °C -10.1 °C 34256.2 hPa East 12.9 km/h 25.9 km/h 77 % 0 mm 237 W/m2
08:15 -7.7 °C -10.1 °C 34269.7 hPa ESE 12.9 km/h 25.9 km/h 76 % 0 mm 253 W/m2
08:20 -7.6 °C -10.1 °C 34269.7 hPa ESE 7.7 km/h 25.9 km/h 75 % 0 mm 267 W/m2
08:25 -7.4 °C -9.9 °C 34269.7 hPa ESE 15.6 km/h 25.9 km/h 75 % 0 mm 283 W/m2
08:30 -7.3 °C -9.8 °C 34269.7 hPa ESE 5.1 km/h 25.9 km/h 75 % 0 mm 299 W/m2
08:35 -7.2 °C -9.8 °C 34256.2 hPa ESE 10.3 km/h 28.5 km/h 74 % 0 mm 313 W/m2
08:40 -7.1 °C -9.8 °C 34269.7 hPa East 7.7 km/h 28.5 km/h 73 % 0 mm 327 W/m2
08:45 -6.9 °C -9.7 °C 34256.2 hPa ENE 12.9 km/h 20.8 km/h 73 % 0 mm 306 W/m2
08:50 -6.8 °C -9.7 °C 34269.7 hPa East 23.3 km/h 33.6 km/h 72 % 0 mm 357 W/m2
08:55 -6.7 °C -9.7 °C 34269.7 hPa ESE 10.3 km/h 33.6 km/h 71 % 0 mm 373 W/m2
09:00 -6.5 °C -9.4 °C 34269.7 hPa ENE 12.9 km/h 28.5 km/h 72 % 0 mm 388 W/m2
09:05 -6.3 °C -9.5 °C 34269.7 hPa SE 2.6 km/h 28.5 km/h 70 % 0 mm 403 W/m2
09:10 -6.2 °C -9.4 °C 34269.7 hPa SSE 20.8 km/h 23.3 km/h 70 % 0 mm 417 W/m2
09:15 -6.1 °C -9.4 °C 34269.7 hPa ESE 12.9 km/h 25.9 km/h 69 % 0 mm 429 W/m2
09:20 -6 °C -9.3 °C 34269.7 hPa ESE 2.6 km/h 25.9 km/h 69 % 0 mm 445 W/m2
09:25 -5.8 °C -9.3 °C 34269.7 hPa SE 7.7 km/h 25.9 km/h 68 % 0 mm 462 W/m2
09:30 -5.8 °C -9.2 °C 34269.7 hPa ESE 12.9 km/h 25.9 km/h 68 % 0 mm 476 W/m2
09:35 -5.7 °C -9.1 °C 34269.7 hPa NE 18.2 km/h 23.3 km/h 68 % 0 mm 492 W/m2
09:40 -5.6 °C -9.2 °C 34269.7 hPa East 15.6 km/h 23.3 km/h 66 % 0 mm 501 W/m2
09:45 -5.4 °C -9.1 °C 34269.7 hPa ESE 10.3 km/h 20.8 km/h 67 % 0 mm 519 W/m2
09:50 -5.4 °C -9.1 °C 34256.2 hPa ESE 18.2 km/h 31.1 km/h 66 % 0 mm 533 W/m2
09:55 -5.4 °C -8.9 °C 34269.7 hPa ESE 10.3 km/h 31.1 km/h 67 % 0 mm 547 W/m2
10:00 -5.2 °C -9.2 °C 34256.2 hPa ENE 7.7 km/h 25.9 km/h 64 % 0 mm 559 W/m2
10:05 -5.2 °C -9.1 °C 34256.2 hPa East 10.3 km/h 28.5 km/h 65 % 0 mm 573 W/m2
10:10 -5.1 °C -8.8 °C 34256.2 hPa ESE 5.1 km/h 28.5 km/h 66 % 0 mm 584 W/m2
10:15 -5 °C -9 °C 34256.2 hPa ENE 23.3 km/h 23.3 km/h 64 % 0 mm 599 W/m2
10:20 -4.9 °C -9.1 °C 34256.2 hPa East 7.7 km/h 28.5 km/h 63 % 0 mm 608 W/m2
10:25 -4.8 °C -8.8 °C 34269.7 hPa East 18.2 km/h 28.5 km/h 64 % 0 mm 619 W/m2
10:30 -4.7 °C -8.7 °C 34256.2 hPa SE 2.6 km/h 25.9 km/h 64 % 0 mm 631 W/m2
10:35 -4.6 °C -8.7 °C 34256.2 hPa East 7.7 km/h 28.5 km/h 63 % 0 mm 645 W/m2
10:40 -4.5 °C -8.8 °C 34256.2 hPa East 7.7 km/h 28.5 km/h 62 % 0 mm 657 W/m2
10:45 -4.4 °C -8.6 °C 34269.7 hPa NE 10.3 km/h 23.3 km/h 63 % 0 mm 668 W/m2
10:50 -4.3 °C -8.8 °C 34256.2 hPa ESE 7.7 km/h 23.3 km/h 61 % 0 mm 682 W/m2
10:55 -4.2 °C -8.7 °C 34256.2 hPa ESE 10.3 km/h 20.8 km/h 61 % 0 mm 689 W/m2
11:00 -4.2 °C -8.7 °C 34256.2 hPa ESE 12.9 km/h 20.8 km/h 61 % 0 mm 700 W/m2
11:05 -4 °C -8.3 °C 34256.2 hPa Calm   20.8 km/h 62 % 0 mm 710 W/m2
11:10 -3.8 °C -8.6 °C 34256.2 hPa SE 20.8 km/h 20.8 km/h 59 % 0 mm 724 W/m2
11:15 -3.8 °C -8.4 °C 34256.2 hPa SE 12.9 km/h 20.8 km/h 60 % 0 mm 733 W/m2
11:20 -3.7 °C -8.3 °C 34246 hPa ESE 12.9 km/h 23.3 km/h 60 % 0 mm 744 W/m2
11:25 -3.5 °C -8.1 °C 34246 hPa SE 12.9 km/h 23.3 km/h 60 % 0 mm 756 W/m2
11:30 -3.6 °C -8.4 °C 34246 hPa East 10.3 km/h 20.8 km/h 59 % 0 mm 765 W/m2
11:35 -3.6 °C -8.5 °C 34246 hPa ENE 5.1 km/h 18.2 km/h 58 % 0 mm 773 W/m2
11:40 -3.4 °C -8.1 °C 34246 hPa ENE 10.3 km/h 18.2 km/h 60 % 0 mm 780 W/m2
11:45 -3.2 °C -7.9 °C 34246 hPa ENE 10.3 km/h 20.8 km/h 59 % 0 mm 791 W/m2
11:50 -3.2 °C -8.2 °C 34246 hPa ENE 2.6 km/h 25.9 km/h 58 % 0 mm 800 W/m2
11:55 -3.3 °C -8.1 °C 34235.8 hPa ENE 10.3 km/h 25.9 km/h 59 % 0 mm 809 W/m2
12:05 -3.1 °C -7.9 °C 34246 hPa ENE 7.7 km/h 25.9 km/h 59 % 0 mm 821 W/m2
12:10 -2.9 °C -7.8 °C 34246 hPa ESE 5.1 km/h 25.9 km/h 58 % 0 mm 828 W/m2
12:15 -2.7 °C -7.9 °C 34246 hPa ENE 7.7 km/h 25.9 km/h 57 % 0 mm 835 W/m2
12:20 -2.7 °C -7.7 °C 34235.8 hPa ENE 2.6 km/h 25.9 km/h 58 % 0 mm 842 W/m2
12:25 -2.6 °C -7.9 °C 34235.8 hPa NE 10.3 km/h 25.9 km/h 56 % 0 mm 847 W/m2
12:30 -2.4 °C -7.4 °C 34235.8 hPa ESE 10.3 km/h 25.9 km/h 58 % 0 mm 854 W/m2
12:40 -2.6 °C -8.1 °C 34235.8 hPa NE 20.8 km/h 28.5 km/h 55 % 0 mm 863 W/m2
12:45 -2.5 °C -7.5 °C 34235.8 hPa ESE 12.9 km/h 28.5 km/h 58 % 0 mm 868 W/m2
12:50 -2.3 °C -7.8 °C 34235.8 hPa ESE 2.6 km/h 23.3 km/h 55 % 0 mm 874 W/m2
12:55 -2.1 °C -7.3 °C 34235.8 hPa ENE 18.2 km/h 25.9 km/h 57 % 0 mm 875 W/m2
13:00 -2.2 °C -7.4 °C 34235.8 hPa ESE 12.9 km/h 25.9 km/h 57 % 0 mm 877 W/m2
13:05 -2.1 °C -7.6 °C 34235.8 hPa ESE 7.7 km/h 23.3 km/h 55 % 0 mm 882 W/m2
13:10 -2 °C -7.5 °C 34235.8 hPa East 12.9 km/h 23.3 km/h 55 % 0 mm 884 W/m2
13:15 -2 °C -7.7 °C 34235.8 hPa ESE 12.9 km/h 23.3 km/h 54 % 0 mm 889 W/m2
13:20 -2 °C -7.8 °C 34235.8 hPa ESE 15.6 km/h 25.9 km/h 53 % 0 mm 889 W/m2
13:25 -1.9 °C -7.4 °C 34235.8 hPa ESE 12.9 km/h 25.9 km/h 55 % 0 mm 893 W/m2
13:30 -1.8 °C -7.9 °C 34235.8 hPa ESE 12.9 km/h 25.9 km/h 51 % 0 mm 893 W/m2
13:35 -1.8 °C -7.3 °C 34235.8 hPa ENE 2.6 km/h 25.9 km/h 55 % 0 mm 896 W/m2
13:40 -1.6 °C -7.3 °C 34235.8 hPa ESE 10.3 km/h 23.3 km/h 54 % 0 mm 900 W/m2
13:45 -1.6 °C -7.6 °C 34235.8 hPa SSE 10.3 km/h 23.3 km/h 52 % 0 mm 902 W/m2
13:50 -1.5 °C -7.9 °C 34235.8 hPa SSE 23.3 km/h 25.9 km/h 50 % 0 mm 898 W/m2
13:55 -1.4 °C -7.7 °C 34235.8 hPa East 10.3 km/h 28.5 km/h 51 % 0 mm 898 W/m2
14:00 -1.4 °C -7.1 °C 34222.3 hPa ESE 10.3 km/h 28.5 km/h 54 % 0 mm 898 W/m2
14:05 -1.5 °C -7.7 °C 34235.8 hPa East 18.2 km/h 28.5 km/h 51 % 0 mm 898 W/m2
14:10 -1.3 °C -7.7 °C 34222.3 hPa SSE 5.1 km/h 31.1 km/h 50 % 0 mm 898 W/m2
14:15 -1.3 °C -8.1 °C 34222.3 hPa SSW 7.7 km/h 31.1 km/h 48 % 0 mm 895 W/m2
14:20 -1.3 °C -7.5 °C 34222.3 hPa SE 10.3 km/h 23.3 km/h 51 % 0 mm 889 W/m2
14:25 -1 °C -7.4 °C 34222.3 hPa ESE 23.3 km/h 23.3 km/h 50 % 0 mm 889 W/m2
14:30 -0.9 °C -7.9 °C 34222.3 hPa SSE 18.2 km/h 25.9 km/h 47 % 0 mm 889 W/m2
14:35 -1 °C -7.6 °C 34222.3 hPa SE 12.9 km/h 25.9 km/h 49 % 0 mm 886 W/m2
14:40 -0.8 °C -7.7 °C 34222.3 hPa ESE 5.1 km/h 28.5 km/h 48 % 0 mm 882 W/m2
14:45 -0.7 °C -6.8 °C 34212.1 hPa Calm   28.5 km/h 52 % 0 mm 877 W/m2
14:50 -0.8 °C -7.8 °C 34212.1 hPa ESE 5.1 km/h 20.8 km/h 47 % 0 mm 874 W/m2
14:55 -0.9 °C -7.3 °C 34212.1 hPa South 10.3 km/h 20.8 km/h 50 % 0 mm 870 W/m2
15:00 -0.8 °C -6.9 °C 34212.1 hPa NW 5.1 km/h 20.8 km/h 52 % 0 mm 865 W/m2
15:10 -0.8 °C -7.3 °C 34212.1 hPa SE 5.1 km/h 18.2 km/h 50 % 0 mm 854 W/m2
15:15 -0.7 °C -7.1 °C 34212.1 hPa ESE 12.9 km/h 18.2 km/h 50 % 0 mm 842 W/m2
15:20 -0.6 °C -7.6 °C 34212.1 hPa ESE 2.6 km/h 25.9 km/h 47 % 0 mm 842 W/m2
15:25 -0.5 °C -6.8 °C 34212.1 hPa West 5.1 km/h 25.9 km/h 51 % 0 mm 835 W/m2
15:30 -1 °C -6.9 °C 34198.6 hPa NW 7.7 km/h 15.6 km/h 53 % 0 mm 828 W/m2
15:35 -1.3 °C -6.6 °C 34198.6 hPa WNW 7.7 km/h 15.6 km/h 57 % 0 mm 821 W/m2
15:40 -1.2 °C -6.9 °C 34198.6 hPa WNW 10.3 km/h 12.9 km/h 54 % 0 mm 816 W/m2
15:45 -1.1 °C -6.4 °C 34198.6 hPa West 12.9 km/h 20.8 km/h 56 % 0 mm 805 W/m2
15:50 -1.6 °C -7.4 °C 34212.1 hPa WSW 33.6 km/h 49.2 km/h 53 % 0 mm 796 W/m2
15:55 -2.8 °C -8.1 °C 34212.1 hPa WSW 36.2 km/h 49.2 km/h 56 % 0 mm 789 W/m2
16:00 -3.4 °C -8.2 °C 34212.1 hPa NW 15.6 km/h 36.2 km/h 59 % 0 mm 779 W/m2
16:05 -3.4 °C -8.2 °C 34212.1 hPa WSW 15.6 km/h 36.2 km/h 59 % 0 mm 765 W/m2
16:10 -3.4 °C -8.2 °C 34212.1 hPa West 15.6 km/h 28.5 km/h 59 % 0 mm 756 W/m2
16:15 -3.5 °C -8.1 °C 34212.1 hPa West 12.9 km/h 23.3 km/h 60 % 0 mm 747 W/m2
16:20 -3.6 °C -7.9 °C 34212.1 hPa WSW 12.9 km/h 23.3 km/h 62 % 0 mm 744 W/m2
16:25 -3.7 °C -8.1 °C 34212.1 hPa WSW 12.9 km/h 31.1 km/h 62 % 0 mm 731 W/m2
16:30 -3.7 °C -7.9 °C 34212.1 hPa West 5.1 km/h 31.1 km/h 63 % 0 mm 721 W/m2
16:35 -3.4 °C -7.5 °C 34212.1 hPa West 5.1 km/h 20.8 km/h 64 % 0 mm 710 W/m2
16:40 -3.2 °C -7.9 °C 34212.1 hPa SW 2.6 km/h 25.9 km/h 60 % 0 mm 701 W/m2
16:45 -3.2 °C -7.6 °C 34212.1 hPa SSW 15.6 km/h 25.9 km/h 62 % 0 mm 689 W/m2
16:50 -3.2 °C -7.8 °C 34212.1 hPa SW 10.3 km/h 28.5 km/h 60 % 0 mm 680 W/m2
16:55 -3.2 °C -7.7 °C 34212.1 hPa South 12.9 km/h 28.5 km/h 61 % 0 mm 670 W/m2
17:00 -3.3 °C -8.1 °C 34212.1 hPa South 5.1 km/h 31.1 km/h 59 % 0 mm 659 W/m2
17:05 -3.1 °C -8.2 °C 34212.1 hPa West 10.3 km/h 31.1 km/h 57 % 0 mm 647 W/m2
17:10 -3 °C -7.9 °C 34212.1 hPa West 12.9 km/h 28.5 km/h 58 % 0 mm 638 W/m2
17:15 -3.1 °C -7.9 °C 34212.1 hPa WSW 5.1 km/h 28.5 km/h 59 % 0 mm 624 W/m2
17:20 -2.8 °C -7.8 °C 34212.1 hPa WNW 10.3 km/h 28.5 km/h 58 % 0 mm 613 W/m2
17:25 -3 °C -8.4 °C 34212.1 hPa West 15.6 km/h 28.5 km/h 55 % 0 mm 605 W/m2
17:30 -3 °C -8.4 °C 34198.6 hPa SW 12.9 km/h 25.9 km/h 55 % 0 mm 591 W/m2
17:40 -2.9 °C -8 °C 34198.6 hPa SSW 5.1 km/h 20.8 km/h 57 % 0 mm 510 W/m2
17:50 -2.8 °C -8.1 °C 34198.6 hPa SSW 10.3 km/h 23.3 km/h 56 % 0 mm 517 W/m2
17:55 -2.9 °C -8.2 °C 34198.6 hPa SSW 7.7 km/h 23.3 km/h 56 % 0 mm 533 W/m2
18:00 -3.1 °C -8.2 °C 34198.6 hPa WSW 18.2 km/h 23.3 km/h 57 % 0 mm 520 W/m2
18:05 -3.2 °C -8.1 °C 34198.6 hPa WSW 15.6 km/h 23.3 km/h 59 % 0 mm 374 W/m2
18:10 -3.3 °C -8.1 °C 34198.6 hPa SW 10.3 km/h 18.2 km/h 59 % 0 mm 483 W/m2
18:15 -3.4 °C -7.9 °C 34198.6 hPa SW 7.7 km/h 18.2 km/h 61 % 0 mm 480 W/m2
18:20 -3.2 °C -7.7 °C 34198.6 hPa SSW 10.3 km/h 18.2 km/h 61 % 0 mm 464 W/m2
18:25 -3.2 °C -7.7 °C 34188.4 hPa SW 5.1 km/h 18.2 km/h 61 % 0 mm 439 W/m2
18:30 -3.2 °C -7.9 °C 34188.4 hPa SW 5.1 km/h 15.6 km/h 60 % 0 mm 432 W/m2
18:35 -3.3 °C -8.1 °C 34188.4 hPa South 7.7 km/h 18.2 km/h 59 % 0 mm 424 W/m2
18:40 -3.3 °C -7.9 °C 34188.4 hPa SW 7.7 km/h 20.8 km/h 60 % 0 mm 411 W/m2
18:45 -3.2 °C -7.9 °C 34188.4 hPa SSW 18.2 km/h 20.8 km/h 60 % 0 mm 394 W/m2
18:50 -3.2 °C -7.7 °C 34188.4 hPa SW 2.6 km/h 36.2 km/h 61 % 0 mm 376 W/m2
18:55 -3.4 °C -8.1 °C 34188.4 hPa South 7.7 km/h 36.2 km/h 60 % 0 mm 364 W/m2
19:00 -3.6 °C -7.9 °C 34198.6 hPa WSW 12.9 km/h 20.8 km/h 62 % 0 mm 350 W/m2
19:05 -4 °C -8 °C 34198.6 hPa SW 15.6 km/h 28.5 km/h 64 % 0 mm 336 W/m2
19:10 -4.3 °C -8.2 °C 34198.6 hPa SSW 20.8 km/h 28.5 km/h 65 % 0 mm 322 W/m2
19:15 -4.4 °C -8.4 °C 34198.6 hPa South 10.3 km/h 25.9 km/h 64 % 0 mm 309 W/m2
19:20 -4.4 °C -8.6 °C 34188.4 hPa South 10.3 km/h 25.9 km/h 63 % 0 mm 294 W/m2
19:25 -4.3 °C -8.5 °C 34188.4 hPa South 5.1 km/h 20.8 km/h 63 % 0 mm 278 W/m2
19:30 -4.3 °C -8.6 °C 34198.6 hPa SW 10.3 km/h 20.8 km/h 62 % 0 mm 264 W/m2
19:35 -4.4 °C -8.6 °C 34188.4 hPa South 2.6 km/h 20.8 km/h 63 % 0 mm 250 W/m2
19:40 -4.5 °C -8.5 °C 34198.6 hPa SSW 10.3 km/h 25.9 km/h 64 % 0 mm 229 W/m2
19:45 -4.7 °C -8.7 °C 34198.6 hPa South 5.1 km/h 25.9 km/h 64 % 0 mm 207 W/m2
19:50 -4.8 °C -8.6 °C 34198.6 hPa South 12.9 km/h 23.3 km/h 65 % 0 mm 183 W/m2
19:55 -4.9 °C -8.4 °C 34198.6 hPa West 5.1 km/h 18.2 km/h 67 % 0 mm 165 W/m2
20:00 -5 °C -8.4 °C 34198.6 hPa South 2.6 km/h 20.8 km/h 68 % 0 mm 62 W/m2
20:05 -5.1 °C -8.6 °C 34198.6 hPa South 5.1 km/h 20.8 km/h 68 % 0 mm 146 W/m2
20:10 -5.1 °C -8.6 °C 34198.6 hPa South 5.1 km/h 20.8 km/h 68 % 0 mm 139 W/m2
20:15 -5.1 °C -8.4 °C 34212.1 hPa SW 10.3 km/h 18.2 km/h 69 % 0 mm 125 W/m2
20:20 -5.2 °C -8.4 °C 34212.1 hPa SSW 7.7 km/h 20.8 km/h 70 % 0 mm 105 W/m2
20:25 -5.3 °C -8.4 °C 34212.1 hPa SW 7.7 km/h 20.8 km/h 71 % 0 mm 88 W/m2
20:30 -5.4 °C -8.4 °C 34212.1 hPa SW 12.9 km/h 18.2 km/h 72 % 0 mm 39 W/m2
20:35 -5.6 °C -8.4 °C 34212.1 hPa South 15.6 km/h 18.2 km/h 73 % 0 mm 53 W/m2
20:40 -5.7 °C -8.3 °C 34212.1 hPa South 7.7 km/h 18.2 km/h 75 % 0 mm 35 W/m2
20:45 -5.8 °C -8.3 °C 34212.1 hPa South 10.3 km/h 18.2 km/h 76 % 0 mm 32 W/m2
20:50 -5.9 °C -8.3 °C 34212.1 hPa South 10.3 km/h 18.2 km/h 77 % 0 mm 25 W/m2
20:55 -6 °C -8.3 °C 34198.6 hPa South 7.7 km/h 15.6 km/h 77 % 0 mm 19 W/m2
21:00 -6 °C -8.4 °C 34198.6 hPa SSE 5.1 km/h 15.6 km/h 76 % 0 mm 18 W/m2
21:05 -5.9 °C -8.4 °C 34198.6 hPa SSE 5.1 km/h 12.9 km/h 76 % 0 mm 18 W/m2
21:10 -6 °C -8.3 °C 34198.6 hPa Calm   10.3 km/h 77 % 0 mm 18 W/m2
21:15 -6 °C -8.3 °C 34198.6 hPa SE 2.6 km/h 12.9 km/h 77 % 0 mm 16 W/m2
21:20 -6.1 °C -8.4 °C 34188.4 hPa Calm   15.6 km/h 77 % 0 mm 12 W/m2
21:25 -6.2 °C -8.4 °C 34188.4 hPa SE 5.1 km/h 15.6 km/h 77 % 0 mm 9 W/m2
21:30 -6.2 °C -8.4 °C 34188.4 hPa ESE 5.1 km/h 10.3 km/h 77 % 0 mm 7 W/m2
21:35 -6.2 °C -8.4 °C 34188.4 hPa Calm   10.3 km/h 77 % 0 mm 0 W/m2
21:40 -6.3 °C -8.5 °C 34188.4 hPa ENE 5.1 km/h 7.7 km/h 78 % 0 mm 0 W/m2
21:45 -6.3 °C -8.5 °C 34188.4 hPa East 5.1 km/h 12.9 km/h 78 % 0 mm 0 W/m2
21:50 -6.2 °C -8.6 °C 34198.6 hPa SSE 5.1 km/h 12.9 km/h 77 % 0 mm 0 W/m2
21:55 -6.2 °C -8.6 °C 34198.6 hPa SE 5.1 km/h 12.9 km/h 77 % 0 mm 0 W/m2
22:00 -6.3 °C -8.5 °C 34188.4 hPa Calm   10.3 km/h 78 % 0 mm 0 W/m2
22:05 -6.5 °C -8.6 °C 34188.4 hPa Calm   10.3 km/h 79 % 0 mm 0 W/m2
22:10 -6.7 °C -8.6 °C 34188.4 hPa East 5.1 km/h 7.7 km/h 81 % 0 mm 0 W/m2
22:15 -6.6 °C -8.6 °C 34198.6 hPa East 7.7 km/h 7.7 km/h 80 % 0 mm 0 W/m2
22:20 -6.5 °C -8.6 °C 34198.6 hPa East 5.1 km/h 7.7 km/h 79 % 0 mm 0 W/m2
22:25 -6.5 °C -8.6 °C 34198.6 hPa East 7.7 km/h 7.7 km/h 79 % 0 mm 0 W/m2
22:30 -6.5 °C -8.6 °C 34198.6 hPa ESE 5.1 km/h 10.3 km/h 79 % 0 mm 0 W/m2
22:35 -6.5 °C -8.4 °C 34198.6 hPa SSE 5.1 km/h 10.3 km/h 80 % 0 mm 0 W/m2
22:40 -6.4 °C -8.6 °C 34212.1 hPa SSE 5.1 km/h 12.9 km/h 78 % 0 mm 0 W/m2
22:45 -6.3 °C -8.6 °C 34212.1 hPa SSE 2.6 km/h 12.9 km/h 78 % 0 mm 0 W/m2
22:50 -6.3 °C -8.6 °C 34212.1 hPa SW 10.3 km/h 15.6 km/h 77 % 0 mm 0 W/m2
22:55 -6.3 °C -8.3 °C 34246 hPa WSW 23.3 km/h 36.2 km/h 80 % 0 mm 0 W/m2
23:00 -6.5 °C -8.3 °C 34256.2 hPa SW 15.6 km/h 36.2 km/h 82 % 0 mm 0 W/m2
23:05 -6.7 °C -8.3 °C 34269.7 hPa SW 12.9 km/h 38.8 km/h 83 % 0 mm 0 W/m2
23:10 -7 °C -8.5 °C 34269.7 hPa WSW 15.6 km/h 44.1 km/h 84 % 0 mm 0 W/m2
23:15 -7.3 °C -8.6 °C 34279.9 hPa West 12.9 km/h 44.1 km/h 86 % 0 mm 0 W/m2
23:20 -7.4 °C -8.6 °C 34279.9 hPa SSW 10.3 km/h 38.8 km/h 88 % 0 mm 0 W/m2
23:25 -7.6 °C -8.6 °C 34279.9 hPa West 10.3 km/h 33.6 km/h 89 % 0 mm 0 W/m2
23:30 -7.7 °C -8.6 °C 34293.4 hPa WSW 10.3 km/h 33.6 km/h 90 % 0 mm 0 W/m2
23:35 -7.7 °C -8.7 °C 34279.9 hPa SW 7.7 km/h 31.1 km/h 90 % 0 mm 0 W/m2
23:40 -7.8 °C -8.6 °C 34279.9 hPa WSW 2.6 km/h 28.5 km/h 91 % 0 mm 0 W/m2
23:50 -7.9 °C -8.7 °C 34279.9 hPa WSW 23.3 km/h 38.8 km/h 91 % 0 mm 0 W/m2
Avec l'autorisation de Weather Underground - 1.75 mb